Temperature
24 24 24 23 23 23 23 23 22 23 23 23 23 23 23 22 22 21 20 20 19 19 18 18 18 18 18 18 17 17 17 16 16 16 16 16 16 15 15 15 15 15 15 15
23 24 24 23 23 23 23 23 23 23 23 24 24 23 22 22 21 21 20 20 19 19 19 18 18 18 18 18 17 17 17 16 16 16 16 16 15 15 15 15 15 15 15 15
22 23 23 22 23 23 23 23 23 22 23 23 23 22 22 22 21 20 20 20 19 19 19 18 18 18 18 18 17 17 17 16 16 16 16 16 15 15 15 15 15 15 15 15
21 22 20 23 24 24 23 23 23 23 23 23 23 22 22 21 20 20 20 19 19 19 18 18 18 18 18 17 17 17 17 16 16 16 16 16 15 15 15 15 15 15 15 15
21 21 21 23 24 24 23 22 23 23 23 22 22 22 21 21 20 20 19 19 19 18 18 18 18 18 18 17 17 17 16 16 16 16 16 15 15 15 15 15 15 15 15 15
20 20 20 22 23 23 23 21 22 22 22 22 21 20 20 20 19 19 19 18 18 18 18 18 18 18 17 17 17 17 16 16 16 16 15 15 15 15 15 14 14 14 14 14
19 20 21 22 23 23 21 21 22 22 21 21 21 20 20 19 19 18 18 18 18 17 17 17 17 17 17 17 17 16 16 16 15 15 15 15 15 15 14 14 14 14 14 14
20 19 19 21 22 21 21 21 21 21 20 20 20 20 19 19 18 18 17 17 17 17 17 17 17 16 16 16 16 16 16 15 15 15 15 15 14 14 14 14 14 14 14 14
20 20 21 21 21 20 20 20 20 20 19 19 19 18 18 18 17 17 17 17 16 16 16 16 16 16 16 16 16 16 15 15 15 14 14 14 14 14 14 14 13 13 13 13
20 20 20 20 20 19 19 19 19 19 19 18 18 18 17 17 17 16 16 16 16 15 15 15 15 15 15 15 15 15 15 15 14 14 14 14 14 14 14 13 13 13 13 13
19 19 19 19 19 19 19 18 18 18 18 18 17 17 17 16 16 16 15 15 15 15 15 15 15 15 15 15 15 15 14 14 14 14 14 13 13 13 13 13 13 13 13 12
18 18 18 18 18 18 18 17 17 17 17 17 17 16 16 16 15 15 15 15 15 14 14 14 14 14 14 14 14 14 14 14 14 13 13 13 13 13 13 13 12 12 12 12
17 17 17 17 17 17 16 16 16 16 16 16 16 16 15 15 15 15 15 15 14 14 14 14 14 14 14 14 14 14 14 13 13 13 13 13 13 12 12 12 12 12 12 12
16 16 16 16 16 16 16 15 15 15 15 15 15 15 15 15 14 14 14 14 14 14 13 13 13 13 13 13 13 13 13 13 13 13 12 12 12 12 12 12 12 11 11 11
15 15 15 15 15 15 15 15 14 14 14 14 14 14 14 14 14 13 13 13 13 13 13 13 13 13 13 13 13 13 12 12 12 12 12 12 12 12 12 11 11 11 11 11
14 14 14 14 14 14 14 14 14 13 13 13 13 13 13 13 13 13 13 13 13 12 12 12 12 12 12 12 12 12 12 12 12 12 12 11 11 11 11 11 11 11 10 10
14 13 13 13 13 13 13 13 13 13 13 12 12 12 12 12 12 12 12 12 12 12 12 12 12 12 12 12 11 11 11 11 11 11 11 11 11 11 11 10 10 10 10 10
13 13 13 13 12 12 12 12 12 12 12 12 12 12 12 12 11 11 11 11 11 11 11 11 11 11 11 11 11 11 11 11 11 11 11 10 10 10 10 10 10 10 9 9
12 12 12 12 12 12 12 11 11 11 11 11 11 11 11 11 11 11 10 11 11 10 11 11 11 11 11 11 11 10 10 10 10 10 10 10 10 10 9 9 9 9 9 9
12 12 12 11 11 11 11 11 11 10 10 11 11 10 10 10 10 10 10 10 10 10 10 10 10 10 10 10 10 10 10 10 10 9 9 9 9 9 9 9 9 8 8 8
11 11 11 11 11 10 10 10 10 10 10 10 10 10 10 9 9 9 9 9 9 9 9 9 9 9 10 10 9 9 9 9 9 9 9 9 9 9 8 8 8 8 8 8
10 10 10 10 10 9 9 9 9 9 9 9 9 9 9 9 8 8 8 8 8 8 8 9 9 9 9 9 9 9 9 8 8 8 8 8 8 8 8 8 8 7 7 7
10 10 9 9 9 9 9 9 9 9 9 9 9 8 8 8 8 8 8 8 8 8 8 8 8 8 8 8 8 8 8 8 8 8 8 8 7 7 7 7 7 7 7 7
9 9 9 8 8 8 8 8 8 8 8 8 8 8 8 7 7 7 8 8 7 7 7 7 7 7 7 7 8 7 7 7 7 7 7 7 7 7 7 7 7 7 7 7
8 8 8 8 8 8 8 7 7 7 7 7 7 7 7 7 7 7 7 7 7 7 7 7 7 7 7 7 7 7 7 7 7 7 7 6 6 6 6 6 6 6 6 6
8 8 7 7 7 7 7 7 7 6 6 6 6 6 6 6 6 6 6 6 6 6 6 6 6 6 6 6 6 6 6 6 6 6 6 6 6 6 6 6 6 6 6 6
7 7 7 7 6 6 6 6 6 6 6 6 6 6 6 6 6 6 6 6 6 6 6 6 6 6 6 6 6 6 6 6 6 6 6 6 6 6 5 6 6 6 6 6
Wind_Speed
7 6 5 6 8 8 9 9 7 6 4 3 1 3 3 4 5 5 5 5 6 5 5 5 4 4 5 5 5 6 6 5 4 4 4 4 3 2 2 1 2 3 2 3
9 8 7 9 9 10 10 9 8 8 6 3 1 3 3 4 5 4 4 4 5 5 5 5 5 5 5 5 6 6 6 6 5 4 4 4 4 3 2 2 2 3 2 3
8 8 8 9 7 8 8 7 7 7 4 1 1 1 2 3 3 3 4 3 3 4 3 4 4 5 5 5 5 6 6 6 6 5 5 5 4 3 3 3 2 2 3 3
7 8 10 4 3 4 5 4 4 3 2 1 1 1 2 3 2 2 2 3 2 2 4 3 4 3 4 4 5 6 6 6 6 6 5 5 4 4 4 3 3 2 3 3
7 9 8 5 2 3 4 4 3 3 2 1 1 1 2 2 2 1 1 1 1 0 2 2 2 3 4 4 5 5 5 6 6 6 6 5 5 4 4 3 3 3 3 4
7 8 7 2 1 1 3 4 1 2 1 1 1 2 1 2 2 2 2 2 1 1 1 2 1 3 3 4 5 5 4 5 5 6 6 6 5 4 3 3 3 3 3 3
10 9 6 2 1 1 4 1 1 2 1 1 3 2 1 2 2 3 2 2 2 2 2 1 1 2 3 3 4 4 4 4 4 5 5 6 5 4 3 3 3 3 3 3
9 10 6 1 1 1 2 3 3 3 2 3 3 2 2 2 3 2 2 3 3 2 2 1 1 2 3 2 2 4 5 4 4 4 4 4 5 4 4 3 3 3 3 2
4 3 1 2 2 3 4 4 3 3 4 3 3 2 1 1 2 2 2 2 2 1 1 1 1 2 2 2 2 3 4 4 4 4 4 4 4 4 3 3 2 2 2 2
5 3 1 2 2 2 3 4 4 4 3 2 2 2 1 0 1 1 1 2 2 1 1 1 1 1 1 2 2 4 4 4 4 4 4 4 3 3 3 3 3 3 3 3
7 4 4 3 3 3 2 3 4 4 3 3 2 2 2 1 1 1 1 2 2 1 1 0 0 1 1 1 1 3 4 4 4 4 4 4 3 2 3 2 3 3 2 3
6 4 4 3 3 4 4 3 4 4 4 3 3 2 2 1 1 1 2 3 3 2 1 1 0 1 1 1 2 2 3 3 2 3 4 4 4 3 2 3 3 3 3 3
6 6 5 4 5 4 4 4 4 4 3 4 3 2 2 2 2 2 2 3 3 3 2 1 1 1 1 1 1 1 2 2 2 2 3 3 4 4 3 1 1 1 2 2
4 5 6 5 5 5 5 5 5 4 4 3 2 1 1 1 2 2 2 2 2 2 2 2 1 1 1 1 1 1 1 2 2 2 2 2 3 3 3 4 2 1 1 2
5 6 5 4 4 4 4 4 4 4 3 2 2 1 1 2 2 2 1 1 1 2 1 1 1 1 1 1 2 1 1 1 1 1 1 2 2 2 2 3 3 2 2 1
5 5 4 4 4 4 4 4 4 4 3 2 2 2 2 2 1 1 1 1 1 1 1 1 1 1 1 1 2 2 2 3 2 1 2 2 2 2 2 2 3 3 3 3
6 6 5 5 4 4 4 4 4 4 3 3 3 2 2 1 1 1 1 1 1 1 1 1 1 1 1 1 2 1 1 3 3 1 1 1 1 2 2 3 3 3 2 3
5 5 5 4 4 4 4 4 4 3 3 4 3 2 2 2 2 2 1 1 1 1 1 1 1 1 1 1 1 1 1 2 2 2 1 1 1 2 2 2 3 3 2 3
3 3 3 3 4 4 3 4 3 3 3 3 3 3 2 2 2 2 2 2 2 2 1 1 1 2 2 1 1 1 2 2 2 2 1 2 2 2 2 2 2 2 2 3
4 4 3 3 3 3 3 3 3 4 4 3 2 2 2 2 2 2 2 2 2 1 1 1 2 1 2 2 1 1 2 2 2 2 1 1 2 2 2 2 2 2 2 3
4 3 3 3 3 3 4 4 4 4 3 2 2 2 2 2 2 2 2 2 2 1 1 1 2 1 1 1 2 2 2 2 2 2 2 2 2 2 2 2 2 2 2 2
3 3 2 2 3 4 4 3 3 3 2 2 2 2 2 2 2 2 2 2 2 2 2 1 1 1 2 2 2 2 2 2 2 2 2 3 3 3 2 2 3 2 2 2
3 3 3 3 4 4 3 3 2 2 2 2 2 2 2 2 2 2 2 1 1 2 2 2 2 2 3 2 3 3 3 2 2 2 2 3 3 3 3 3 3 3 3 3
3 3 3 3 3 2 2 2 1 1 1 1 1 1 1 1 1 1 1 1 1 2 2 2 2 3 3 2 2 2 3 3 3 3 3 3 3 3 3 3 3 3 3 3
2 3 3 2 2 2 2 1 1 1 1 1 1 1 1 1 1 1 1 2 3 3 2 3 4 4 4 3 2 2 2 3 3 3 3 3 3 3 3 3 3 3 3 3
2 2 2 2 2 1 1 1 1 1 1 1 1 1 1 0 0 1 1 2 3 3 3 2 3 4 3 3 3 3 3 3 4 3 3 3 3 3 3 3 4 4 3 3
1 1 0 0 0 1 1 1 1 2 2 2 2 2 1 1 1 1 2 2 2 3 3 3 3 3 3 3 3 3 2 2 3 3 3 3 3 3 4 4 4 3 3 4
Wind_Direction
271 284 268 254 255 256 254 256 266 274 279 281 205 147 140 136 131 132 138 140 145 154 161 164 171 173 171 168 166 163 157 157 160 155 149 141 137 141 136 145 137 134 130 122
265 265 261 265 251 245 251 255 256 267 272 289 99 111 138 143 135 134 142 156 155 163 164 168 176 183 180 176 171 163 161 158 155 152 145 142 149 146 139 120 109 111 118 117
259 263 265 256 238 234 239 240 247 257 276 12 63 125 148 134 137 153 155 147 165 170 161 176 182 185 178 173 164 157 157 153 153 154 149 146 146 141 145 142 131 136 143 135
256 255 251 244 207 214 233 240 255 273 291 287 296 233 154 115 123 143 151 154 168 176 162 185 180 166 165 158 159 160 158 154 153 151 148 149 151 155 157 154 158 170 159 151
248 249 253 253 244 219 233 246 249 253 267 287 80 62 130 104 102 92 102 122 114 36 152 163 163 155 155 158 155 156 160 161 157 156 154 153 156 163 167 171 177 180 165 158
251 250 250 249 167 286 248 244 290 235 237 303 176 236 232 87 84 79 51 76 75 53 72 118 120 143 152 159 160 158 158 161 158 162 162 164 168 170 176 178 178 176 173 176
245 248 254 300 268 208 229 296 55 16 10 301 261 282 108 103 97 85 67 67 62 64 59 93 109 134 155 157 171 160 147 149 160 156 163 167 168 170 171 169 171 182 180 179
235 241 244 24 161 222 359 20 27 14 18 9 356 23 61 90 105 103 96 95 84 72 59 46 107 134 145 154 148 143 147 152 159 161 164 162 159 168 169 163 171 183 177 176
240 245 85 81 25 6 3 347 358 9 4 7 9 5 18 71 111 120 124 114 101 85 88 40 86 108 133 123 126 136 147 155 160 159 151 145 148 156 157 154 166 187 185 187
250 241 290 344 351 357 351 348 351 354 351 350 344 335 334 23 129 132 147 132 123 121 113 58 45 88 94 101 125 148 150 155 155 151 144 143 147 153 158 173 183 194 201 201
260 264 287 313 328 323 338 350 342 336 333 322 313 300 291 257 206 171 186 154 136 143 156 167 33 107 102 116 152 165 160 155 161 160 157 155 150 160 172 178 182 184 197 195
261 273 280 292 321 326 329 326 322 321 324 320 300 286 272 237 204 198 192 170 163 168 197 212 211 167 141 152 187 180 169 166 162 160 161 163 160 146 106 146 149 157 170 175
286 293 293 290 302 314 313 310 307 303 295 298 293 278 267 236 203 206 205 191 179 176 188 214 221 181 143 180 184 192 169 153 145 156 172 175 176 171 167 133 95 143 178 172
293 291 284 286 290 296 297 300 304 302 295 293 289 281 267 240 220 217 209 198 178 172 180 200 202 203 172 189 188 216 174 145 143 162 176 186 190 186 178 174 180 202 206 182
271 274 271 276 273 278 290 293 293 298 299 306 322 296 273 241 231 226 206 177 178 174 183 211 200 211 182 196 191 193 144 132 150 168 181 198 189 179 179 182 181 173 139 145
266 269 270 267 269 276 286 284 283 285 288 294 290 275 267 259 219 200 200 185 185 193 202 221 239 215 193 210 195 189 166 162 166 183 189 194 184 172 175 179 184 184 183 174
247 251 254 251 255 267 275 279 277 276 279 282 279 285 269 226 208 212 228 193 192 243 240 225 244 210 183 192 196 201 167 163 163 175 189 180 178 175 181 186 188 189 194 179
245 246 249 251 254 261 268 278 280 278 276 280 280 268 245 229 220 223 226 215 228 259 278 287 305 248 160 167 223 216 182 165 166 173 186 185 194 200 193 192 192 189 185 177
244 250 257 264 262 261 271 283 289 289 284 274 260 249 249 246 235 239 242 234 234 244 258 254 237 211 171 185 240 223 188 167 166 173 183 193 202 203 194 196 200 199 191 184
238 250 252 255 264 272 279 281 281 281 277 264 247 240 255 257 246 243 248 252 257 249 251 292 257 206 182 189 217 226 189 179 181 181 187 197 196 207 208 201 198 200 205 207
242 252 257 265 278 283 279 272 267 267 264 240 227 230 241 255 249 243 248 263 277 297 259 242 251 246 200 216 221 229 199 192 195 191 197 203 201 209 217 208 205 209 214 221
243 249 256 263 263 268 269 262 256 258 255 242 237 232 231 237 237 237 241 241 247 261 265 249 239 242 250 233 222 222 203 199 202 202 203 204 206 211 217 216 213 217 220 228
256 256 255 255 253 257 263 262 261 259 258 254 244 238 238 246 239 228 234 229 219 256 260 247 241 253 259 234 218 207 201 204 210 212 210 206 211 213 216 223 223 220 223 229
250 254 252 252 253 252 260 271 276 277 277 276 265 250 244 254 262 255 203 174 194 230 240 216 225 247 254 248 229 211 207 209 214 220 225 223 218 218 220 222 228 230 227 228
247 253 253 247 242 240 245 250 267 281 282 284 288 296 281 260 244 219 179 189 200 213 233 225 229 242 241 240 235 230 225 222 226 231 226 222 220 219 224 227 231 238 236 233
258 261 257 258 262 266 260 256 254 250 256 271 282 279 283 253 212 255 223 216 216 214 223 227 229 235 237 235 236 239 232 225 231 237 234 225 224 225 224 230 239 239 241 244
271 279 279 268 319 316 282 268 261 258 246 241 259 268 268 256 236 248 241 230 233 228 226 224 227 235 236 231 232 240 243 236 231 235 233 228 227 230 229 231 236 238 240 240
Height
1492 1489 1491 1494 1496 1496 1499 1499 1504 1501 1499 1497 1496 1498 1500 1502 1505 1507 1509 1511 1512 1514 1516 1518 1519 1521 1522 1523 1525 1526 1528 1529 1531 1533 1534 1535 1536 1538 1539 1541 1542 1543 1544 1545
1495 1490 1490 1493 1492 1494 1496 1495 1497 1497 1498 1494 1495 1497 1499 1501 1504 1506 1508 1510 1511 1513 1514 1516 1517 1519 1520 1521 1522 1524 1525 1527 1529 1531 1532 1533 1534 1536 1537 1539 1540 1541 1542 1543
1499 1491 1491 1497 1489 1490 1492 1491 1493 1498 1496 1493 1495 1497 1499 1501 1503 1505 1507 1509 1510 1511 1513 1514 1515 1516 1518 1519 1520 1522 1523 1525 1527 1529 1530 1531 1533 1534 1535 1537 1538 1539 1540 1542
1497 1497 1507 1491 1480 1482 1486 1488 1489 1491 1492 1493 1495 1496 1498 1500 1502 1503 1505 1507 1509 1510 1511 1512 1513 1514 1516 1517 1518 1520 1521 1523 1525 1526 1528 1529 1531 1532 1533 1535 1536 1537 1539 1540
1497 1500 1496 1486 1480 1481 1486 1489 1487 1489 1490 1492 1493 1495 1497 1499 1501 1502 1504 1505 1507 1508 1509 1510 1511 1512 1514 1515 1516 1518 1519 1521 1522 1524 1525 1527 1529 1530 1532 1533 1534 1536 1537 1538
1496 1501 1502 1489 1480 1480 1485 1492 1487 1488 1490 1492 1493 1497 1497 1498 1499 1501 1502 1504 1505 1506 1507 1507 1508 1510 1511 1513 1514 1515 1517 1518 1520 1522 1523 1525 1526 1528 1530 1531 1532 1534 1535 1536
1496 1497 1491 1483 1480 1481 1495 1494 1487 1488 1489 1491 1493 1495 1496 1497 1498 1499 1501 1502 1503 1504 1505 1506 1507 1508 1509 1510 1512 1513 1515 1517 1518 1520 1521 1522 1524 1526 1527 1529 1530 1532 1533 1534
1491 1496 1495 1483 1481 1486 1489 1487 1487 1489 1490 1492 1493 1493 1495 1496 1497 1498 1499 1500 1501 1502 1503 1504 1505 1506 1507 1508 1510 1511 1513 1514 1516 1517 1519 1520 1522 1523 1525 1526 1528 1529 1530 1531
1484 1487 1483 1482 1483 1485 1486 1487 1488 1489 1490 1491 1492 1493 1494 1495 1496 1497 1498 1499 1500 1501 1502 1503 1503 1504 1505 1506 1507 1509 1510 1512 1514 1515 1517 1518 1519 1521 1522 1524 1525 1526 1527 1528
1480 1480 1481 1482 1483 1485 1486 1487 1488 1489 1490 1490 1492 1493 1494 1494 1495 1496 1497 1497 1498 1499 1500 1501 1501 1502 1503 1504 1505 1507 1508 1510 1511 1513 1514 1515 1517 1518 1519 1521 1522 1523 1524 1525
1478 1479 1481 1482 1484 1485 1485 1486 1487 1488 1489 1490 1490 1491 1492 1493 1493 1494 1495 1496 1496 1497 1498 1499 1499 1500 1501 1502 1503 1504 1506 1507 1509 1510 1511 1513 1514 1515 1516 1518 1519 1520 1521 1522
1480 1481 1481 1482 1483 1484 1485 1485 1486 1487 1487 1488 1489 1489 1490 1490 1491 1492 1493 1493 1494 1495 1496 1497 1497 1498 1499 1500 1501 1502 1503 1505 1506 1508 1509 1510 1511 1513 1514 1515 1517 1518 1519 1519
1478 1479 1480 1480 1482 1482 1483 1484 1485 1485 1485 1485 1486 1486 1487 1487 1488 1489 1490 1491 1492 1492 1494 1494 1495 1496 1496 1497 1499 1500 1501 1502 1503 1505 1506 1507 1509 1510 1511 1513 1514 1514 1515 1516
1477 1478 1478 1479 1480 1481 1481 1482 1482 1482 1483 1483 1483 1484 1484 1484 1485 1486 1487 1488 1489 1490 1491 1492 1492 1493 1494 1495 1496 1497 1499 1500 1501 1502 1503 1504 1506 1507 1508 1509 1510 1510 1512 1512
1475 1475 1476 1477 1478 1479 1479 1479 1479 1479 1480 1480 1480 1480 1481 1481 1482 1483 1484 1485 1486 1487 1488 1489 1489 1490 1491 1492 1493 1494 1496 1497 1498 1499 1500 1501 1503 1504 1505 1506 1506 1507 1508 1509
1472 1472 1473 1474 1475 1476 1476 1476 1477 1477 1477 1477 1477 1478 1478 1478 1479 1480 1481 1482 1482 1483 1484 1485 1486 1487 1488 1489 1490 1491 1493 1494 1495 1496 1497 1498 1499 1500 1501 1502 1503 1503 1504 1504
1468 1469 1470 1471 1472 1473 1473 1474 1474 1474 1474 1474 1474 1474 1475 1475 1475 1476 1477 1478 1479 1480 1481 1481 1482 1483 1484 1485 1486 1488 1489 1490 1492 1493 1494 1495 1496 1497 1498 1499 1499 1500 1500 1501
1465 1466 1467 1468 1469 1469 1470 1470 1470 1470 1470 1470 1471 1471 1471 1471 1472 1473 1474 1474 1475 1476 1477 1477 1478 1479 1480 1482 1483 1484 1485 1486 1488 1489 1490 1491 1492 1493 1494 1495 1495 1496 1496 1497
1461 1463 1464 1465 1465 1466 1466 1467 1467 1467 1467 1467 1467 1467 1467 1468 1468 1469 1470 1470 1471 1472 1472 1473 1475 1475 1476 1478 1479 1480 1481 1482 1484 1485 1486 1487 1488 1489 1490 1490 1491 1492 1492 1493
1458 1460 1461 1461 1462 1463 1463 1463 1463 1462 1463 1463 1463 1463 1463 1464 1465 1465 1466 1466 1467 1468 1468 1469 1470 1471 1472 1473 1475 1476 1477 1478 1479 1480 1482 1483 1483 1484 1485 1486 1486 1487 1488 1488
1455 1456 1457 1458 1458 1458 1459 1458 1458 1458 1458 1459 1459 1459 1459 1460 1461 1461 1461 1462 1462 1464 1464 1465 1466 1467 1468 1469 1470 1471 1472 1474 1475 1476 1477 1478 1479 1480 1481 1481 1482 1483 1483 1483
1452 1453 1453 1454 1454 1454 1454 1454 1454 1454 1454 1455 1455 1456 1456 1456 1456 1457 1457 1458 1458 1459 1460 1460 1461 1462 1464 1464 1465 1467 1468 1469 1471 1472 1473 1473 1474 1475 1476 1476 1477 1477 1478 1478
1449 1449 1450 1450 1450 1450 1450 1450 1451 1451 1451 1451 1452 1452 1452 1452 1452 1452 1452 1453 1454 1454 1455 1455 1457 1458 1459 1460 1460 1462 1463 1464 1466 1467 1468 1469 1470 1470 1471 1472 1472 1472 1473 1473
1446 1446 1446 1447 1447 1447 1447 1447 1448 1448 1448 1448 1448 1448 1448 1448 1447 1448 1448 1449 1450 1450 1451 1451 1452 1453 1454 1455 1456 1457 1458 1459 1461 1462 1463 1464 1465 1465 1466 1467 1467 1467 1468 1468
1443 1443 1443 1444 1444 1444 1444 1444 1444 1444 1445 1444 1445 1445 1445 1444 1444 1444 1445 1445 1446 1446 1446 1447 1448 1449 1450 1451 1451 1453 1454 1455 1456 1457 1458 1458 1459 1460 1461 1461 1462 1462 1462 1462
1440 1440 1441 1441 1441 1441 1441 1441 1441 1441 1441 1441 1441 1441 1441 1441 1441 1441 1441 1441 1441 1442 1442 1443 1443 1444 1445 1446 1447 1448 1449 1450 1451 1452 1452 1453 1454 1454 1455 1456 1456 1456 1457 1457
1438 1438 1438 1438 1439 1438 1438 1438 1438 1438 1438 1437 1437 1437 1437 1437 1437 1437 1437 1437 1437 1437 1438 1438 1439 1440 1440 1441 1442 1443 1444 1445 1446 1446 1447 1448 1448 1449 1449 1450 1450 1451 1451 1451